Powrót do katalogu

STARLINK-36551

AktywnyŁącznośćVLEO
NORAD 67493·PAYLOAD·🇺🇸 United States

Wystrzelony Jan 18, 2026 z Cape Canaveral Space Force Station

Loading…

Następne Przeloty (najbliższe 24 godziny)

TLE

ŚwieżeSource: CelesTrak SupGP

Epoka: Sep 14, 2026, 23:12 UTC

1 67493C 26012A   26257.96715278 -.00001318  00000+0 -47735-4 0  2578
2 67493  43.0018 325.8450 0001415 265.1973 146.2626 15.27580117    13

Śledź STARLINK-36551 w czasie rzeczywistym z AllMySat

Download on the App Store